Home > Weather > Marburg > Past weeks

Flag for Germany Weather for the Past 2 Weeks in Marburg, Hesse, Germany

Now
37 °F

Rain. Broken clouds.


Feels Like: 29 °F
Forecast: 35 / 39 °F
Wind: 13 mph from South

Location: Hessen

Current Time: Feb 9, 2016 at 11:39:23 AM

Latest Report: Feb 9, 2016 at 10:50 AM


Visibility: N/A

Pressure: 29.33 "Hg

Humidity: 93%

Dew point: 36 °F

Location of MarburgLocation

Historic Weather in Marburg — Graph

°F

Marburg Temperature Yesterday

Maximum temperature yesterday: 41 °F (at 10:20 AM)
Minimum temperature yesterday: 37 °F (at 7:50 AM)
Average temperature yesterday: 39 °F

High & Low Weather Summary for the Past Weeks

 TemperatureHumidityPressure
High50 °F (Feb 6, 1:50 PM)100% (Jan 25, 10:20 AM)30.36 "Hg (Jan 25, 10:20 AM)
Low30 °F (Feb 3, 5:20 PM)66% (Jan 27, 6:20 PM)29.33 "Hg (Feb 8, 9:50 AM)
Average40 °F94%29.98 "Hg
* Reported Jan 25 10:20 AM — Feb 9 10:20 AM, Marburg, Weather by CustomWeather, © 2016

Note: Actual official high and low records may vary slightly from our data, if they occured in-between our weather recording intervals... More about our weather records

Advertising

Marburg Weather History for the Previous 24 Hours

 ConditionsComfort  
Time TempWeatherWind HumidityBarometerVisibility
10:20 AM
Tue, Feb 9
37 °FLight rain. Partly sunny.15 mph87%29.36 "HgN/A
9:50 AM37 °FBroken clouds.13 mph87%29.39 "HgN/A
8:50 AM39 °FPartly sunny.14 mph81%29.42 "HgN/A
8:20 AM39 °FPartly sunny.18 mph81%29.45 "HgN/A
7:50 AM37 °FPassing clouds.15 mph93%29.45 "HgN/A
8:50 PM
Mon, Feb 8
37 °FPartly cloudy.20 mph87%29.42 "HgN/A
8:20 PM37 °FPartly cloudy.22 mph87%29.42 "HgN/A
7:50 PM37 °FPassing clouds.21 mph93%29.42 "HgN/A
7:20 PM39 °FLight rain. Partly cloudy.20 mph81%29.42 "HgN/A
6:50 PM39 °FPassing clouds.21 mph87%29.39 "HgN/A
6:20 PM39 °FPartly cloudy.18 mph87%29.39 "HgN/A
5:50 PM39 °FPassing clouds.18 mph93%29.39 "HgN/A
5:20 PM39 °FScattered showers. Broken clouds.18 mph93%29.36 "HgN/A
4:50 PM39 °FScattered clouds.21 mph93%29.33 "HgN/A
4:20 PM41 °FBroken clouds.17 mph87%29.33 "HgN/A
3:50 PM41 °FScattered clouds.15 mph93%29.33 "HgN/A
3:20 PM41 °FBroken clouds.18 mph93%29.33 "HgN/A
2:50 PM41 °FBroken clouds.18 mph93%29.33 "HgN/A
2:20 PM39 °FBroken clouds.16 mph100%29.33 "HgN/A
1:50 PM37 °FPartly sunny.17 mph100%29.33 "HgN/A
1:20 PM39 °FRain. Cloudy.21 mph93%29.36 "Hg4 mi
12:50 PM37 °FLight rain. Cloudy.17 mph100%29.36 "HgN/A
12:20 PM37 °FRain. Broken clouds.21 mph100%29.36 "Hg4 mi
11:50 AM39 °FRain. Partly sunny.22 mph100%29.36 "Hg4 mi
11:20 AM41 °FLight rain. Broken clouds.17 mph100%29.36 "HgN/A
Weather by CustomWeather, © 2016

See weather overviewHow to use our weather pages